Torna al catalogo

STARLINK-6309

AttivoComunicazioniVLEO
NORAD 56535·PAYLOAD·🇺🇸 United States

Lanciato May 14, 2023 da Cape Canaveral Space Force Station

Loading…

Prossimi Passaggi (prossime 24 ore)

TLE

AggiornatoSource: CelesTrak SupGP

Epoca: Sep 14, 2026, 20:52 UTC

1 56535C 23065AJ  26257.86993056  .00024829  00000+0  89950-3 0  2573
2 56535  42.9990 238.2538 0001465 258.8564 292.3657 15.27559014    18

Traccia STARLINK-6309 in tempo reale con AllMySat

Download on the App Store